Weather History for Lago Vista, TX

Change the Weather History Date:

Thursday, October 4, 2012

  Actual Average (KATT) Record (KATT)
Temperature  
Mean Temperature 78 °F 75 °F  
Max Temperature 87 °F 85 °F 98 °F (1929)
Min Temperature 68 °F 64 °F 47 °F (1975)
Degree Days  
Heating Degree Days 0 0  
Month to date heating degree days 0  
Since 1 July heating degree days 2  
Cooling Degree Days 12 10  
Month to date cooling degree days 41  
Year to date cooling degree days 2885  
Growing Degree Days 28 (Base 50)    
Moisture  
Dew Point 65 °F    
Average Humidity 70    
Maximum Humidity 94    
Minimum Humidity 46    
Precipitation  
Precipitation 0.00 in 0.11 in 3.57 in (1930)
Month to date precipitation 0.42  
Year to date precipitation 25.50  
Snow  
Snow 0.00 in - - ()
Month to date snowfall  
Since 1 July snowfall  
Since 1 September snowfall  
Snow Depth -    
Sea Level Pressure  
Sea Level Pressure 30.08 in    
Wind  
Wind Speed 8 mph (SSE)    
Max Wind Speed 15 mph    
Max Gust Speed 24 mph    
Visibility 10 miles    
Events      
T = Trace of Precipitation, MM = Missing Value Source: NWS Daily Summary

Daily Weather History Graph

Daily Weather History Graph

Search for Another Location

Airport:

Trip Planner

Search our weather history database for the weather conditions in past years. The results will help you decide how hot, cold, wet, or windy it might be!

Date:

Astronomy

Oct. 04, 2012 Rise Set
Actual Time 7:27 AM CDT 7:12 PM CDT
Civil Twilight 7:03 AM CDT 7:36 PM CDT
Nautical Twilight 6:35 AM CDT 8:04 PM CDT
Astronomical Twilight 6:07 AM CDT 8:32 PM CDT
Moon 10:08 PM CDT (10/4) 11:27 AM CDT (10/4)
Length of Visible Light 12h 33m
Length of Day
11h 45m
Waning Gibbous, 82% of the Moon is Illuminated
Oct 4
Waning Gibbous
Oct 8
Last Quarter
Oct 15
New
Oct 21
First Quarter
Oct 29
Full

Hourly Weather History & Observations

Time (CDT) Temp. Heat Index Dew Point Humidity Pressure Visibility Wind Dir Wind Speed Gust Speed Precip Events Conditions
12:15 AM 69.8 °F - 59.0 °F 68% 30.04 in 10.0 mi SSE 8.1 mph - N/A   Clear
12:35 AM 69.8 °F - 59.0 °F 68% 30.04 in 10.0 mi SSE 5.8 mph - N/A   Clear
12:55 AM 69.8 °F - 60.8 °F 73% 30.04 in 10.0 mi SSE 8.1 mph - N/A   Clear
1:15 AM 68.0 °F - 60.8 °F 78% 30.04 in 10.0 mi SSE 10.4 mph - N/A   Clear
1:35 AM 68.0 °F - 60.8 °F 78% 30.04 in 10.0 mi SSE 8.1 mph - N/A   Scattered Clouds
1:55 AM 68.0 °F - 60.8 °F 78% 30.04 in 10.0 mi SSE 5.8 mph - N/A   Mostly Cloudy
2:15 AM 68.0 °F - 60.8 °F 78% 30.05 in 10.0 mi South 8.1 mph - N/A   Overcast
2:35 AM 68.0 °F - 60.8 °F 78% 30.06 in 10.0 mi SSE 4.6 mph - N/A   Overcast
2:55 AM 69.8 °F - 60.8 °F 73% 30.05 in 10.0 mi SSE 6.9 mph - N/A   Overcast
3:15 AM 69.8 °F - 60.8 °F 73% 30.05 in 10.0 mi SSE 6.9 mph - N/A   Overcast
3:35 AM 69.8 °F - 62.6 °F 78% 30.05 in 10.0 mi SE 6.9 mph - N/A   Overcast
3:55 AM 69.8 °F - 62.6 °F 78% 30.05 in 10.0 mi SSE 6.9 mph - N/A   Overcast
4:15 AM 68.0 °F - 62.6 °F 83% 30.04 in 10.0 mi SE 6.9 mph - N/A   Overcast
4:35 AM 69.8 °F - 62.6 °F 78% 30.05 in 10.0 mi SE 6.9 mph - N/A   Overcast
4:55 AM 69.8 °F - 62.6 °F 78% 30.06 in 10.0 mi SE 8.1 mph - N/A   Overcast
5:15 AM 68.0 °F - 62.6 °F 83% 30.06 in 10.0 mi SSE 6.9 mph - N/A   Overcast
5:35 AM 69.8 °F - 64.4 °F 83% 30.06 in 10.0 mi SSE 5.8 mph - N/A   Overcast
5:55 AM 69.8 °F - 64.4 °F 83% 30.06 in 10.0 mi SE 6.9 mph - N/A   Overcast
6:15 AM 69.8 °F - 64.4 °F 83% 30.06 in 10.0 mi SSE 5.8 mph - N/A   Overcast
6:35 AM 69.8 °F - 64.4 °F 83% 30.07 in 10.0 mi SSE 6.9 mph - N/A   Overcast
6:55 AM 69.8 °F - 64.4 °F 83% 30.07 in 10.0 mi SSE 5.8 mph - N/A   Overcast
7:15 AM 69.8 °F - 64.4 °F 83% 30.07 in 10.0 mi SSE 4.6 mph - N/A   Overcast
7:35 AM 69.8 °F - 64.4 °F 83% 30.07 in 10.0 mi SE 6.9 mph - N/A   Overcast
7:55 AM 69.8 °F - 66.2 °F 88% 30.08 in 7.0 mi SSE 6.9 mph - N/A   Overcast
8:15 AM 69.8 °F - 66.2 °F 88% 30.09 in 7.0 mi SE 5.8 mph - N/A   Overcast
8:35 AM 69.8 °F - 66.2 °F 88% 30.09 in 7.0 mi SE 5.8 mph - N/A   Overcast
8:55 AM 69.8 °F - 68.0 °F 94% 30.09 in 7.0 mi SE 6.9 mph - N/A   Overcast
9:15 AM 69.8 °F - 68.0 °F 94% 30.10 in 5.0 mi SSE 9.2 mph - N/A   Overcast
9:35 AM 71.6 °F - 68.0 °F 88% 30.10 in 7.0 mi SE 8.1 mph - N/A   Overcast
9:55 AM 71.6 °F - 68.0 °F 88% 30.10 in 7.0 mi SE 8.1 mph - N/A   Overcast
10:15 AM 71.6 °F - 68.0 °F 88% 30.11 in 7.0 mi SE 9.2 mph - N/A   Overcast
10:35 AM 73.4 °F - 68.0 °F 83% 30.11 in 10.0 mi SE 8.1 mph - N/A   Overcast
10:55 AM 73.4 °F - 68.0 °F 83% 30.11 in 10.0 mi SE 6.9 mph - N/A   Overcast
11:35 AM 78.8 °F - 68.0 °F 69% 30.11 in 10.0 mi South 15.0 mph 20.7 mph N/A   Overcast
11:55 AM 80.6 °F 83.2 °F 68.0 °F 65% 30.11 in 10.0 mi SSE 13.8 mph 24.2 mph N/A   Mostly Cloudy
12:15 PM 80.6 °F 83.2 °F 68.0 °F 65% 30.11 in 10.0 mi South 9.2 mph 23.0 mph N/A   Overcast
12:35 PM 82.4 °F 85.4 °F 68.0 °F 62% 30.11 in 10.0 mi SSE 15.0 mph 23.0 mph N/A   Mostly Cloudy
12:55 PM 82.4 °F 85.4 °F 68.0 °F 62% 30.10 in 10.0 mi South 9.2 mph 21.9 mph N/A   Scattered Clouds
1:15 PM 84.2 °F 87.3 °F 68.0 °F 58% 30.10 in 10.0 mi South 10.4 mph 20.7 mph N/A   Scattered Clouds
1:35 PM 86.0 °F 88.2 °F 66.2 °F 51% 30.09 in 10.0 mi South 12.7 mph 18.4 mph N/A   Scattered Clouds
1:55 PM 86.0 °F 89.4 °F 68.0 °F 55% 30.09 in 10.0 mi SSE 11.5 mph 19.6 mph N/A   Clear
2:15 PM 86.0 °F 89.4 °F 68.0 °F 55% 30.09 in 10.0 mi South 11.5 mph 18.4 mph N/A   Scattered Clouds
2:35 PM 86.0 °F 88.2 °F 66.2 °F 51% 30.08 in 10.0 mi SE 6.9 mph 19.6 mph N/A   Scattered Clouds
2:55 PM 87.8 °F 89.4 °F 64.4 °F 46% 30.07 in 10.0 mi SE 9.2 mph 16.1 mph N/A   Scattered Clouds
3:15 PM 87.8 °F 90.4 °F 66.2 °F 49% 30.07 in 10.0 mi SSE 6.9 mph 17.3 mph N/A   Clear
3:35 PM 87.8 °F 89.4 °F 64.4 °F 46% 30.07 in 10.0 mi South 13.8 mph 19.6 mph N/A   Clear
3:55 PM 87.8 °F 89.4 °F 64.4 °F 46% 30.06 in 10.0 mi SE 9.2 mph - N/A   Clear
4:15 PM 87.8 °F 89.4 °F 64.4 °F 46% 30.06 in 10.0 mi SSE 12.7 mph 19.6 mph N/A   Clear
4:35 PM 87.8 °F 89.4 °F 64.4 °F 46% 30.06 in 10.0 mi South 11.5 mph 18.4 mph N/A   Clear
4:55 PM 87.8 °F 89.4 °F 64.4 °F 46% 30.06 in 10.0 mi SSE 10.4 mph 17.3 mph N/A   Clear
5:15 PM 87.8 °F 89.4 °F 64.4 °F 46% 30.06 in 10.0 mi South 10.4 mph 16.1 mph N/A   Clear
5:35 PM 87.8 °F 89.4 °F 64.4 °F 46% 30.05 in 10.0 mi SE 12.7 mph 18.4 mph N/A   Clear
5:55 PM 86.0 °F 88.2 °F 66.2 °F 51% 30.06 in 10.0 mi SSE 8.1 mph - N/A   Clear
6:15 PM 86.0 °F 88.2 °F 66.2 °F 51% 30.06 in 10.0 mi SE 9.2 mph 17.3 mph N/A   Clear
6:35 PM 84.2 °F 86.6 °F 66.2 °F 55% 30.07 in 10.0 mi SSE 6.9 mph 16.1 mph N/A   Clear
6:55 PM 82.4 °F 84.6 °F 66.2 °F 58% 30.07 in 10.0 mi SE 8.1 mph 17.3 mph N/A   Scattered Clouds
7:15 PM 82.4 °F 84.6 °F 66.2 °F 58% 30.07 in 10.0 mi SE 6.9 mph - N/A   Scattered Clouds
7:35 PM 82.4 °F 84.6 °F 66.2 °F 58% 30.08 in 10.0 mi SE 6.9 mph - N/A   Overcast
8:15 PM 80.6 °F 83.2 °F 68.0 °F 65% 30.09 in 10.0 mi SE 9.2 mph 17.3 mph N/A   Mostly Cloudy
8:35 PM 80.6 °F 83.2 °F 68.0 °F 65% 30.10 in 10.0 mi SSE 10.4 mph 21.9 mph N/A   Scattered Clouds
8:55 PM 78.8 °F - 68.0 °F 69% 30.10 in 10.0 mi SE 9.2 mph 18.4 mph N/A   Clear
9:15 PM 78.8 °F - 68.0 °F 69% 30.10 in 10.0 mi SE 11.5 mph 19.6 mph N/A   Clear
9:35 PM 78.8 °F - 68.0 °F 69% 30.11 in 10.0 mi SSE 13.8 mph 23.0 mph N/A   Clear
9:55 PM 77.0 °F - 68.0 °F 74% 30.11 in 10.0 mi SE 11.5 mph 19.6 mph N/A   Mostly Cloudy
10:15 PM 77.0 °F - 68.0 °F 74% 30.12 in 10.0 mi SSE 11.5 mph 20.7 mph N/A   Mostly Cloudy
10:35 PM 77.0 °F - 68.0 °F 74% 30.13 in 10.0 mi SSE 15.0 mph 21.9 mph N/A   Overcast
10:55 PM 77.0 °F - 68.0 °F 74% 30.13 in 10.0 mi SSE 11.5 mph 18.4 mph N/A   Mostly Cloudy
11:15 PM 75.2 °F - 68.0 °F 78% 30.13 in 10.0 mi SSE 8.1 mph 20.7 mph N/A   Mostly Cloudy
11:35 PM 73.4 °F - 68.0 °F 83% 30.13 in 10.0 mi SSE 10.4 mph 17.3 mph N/A   Mostly Cloudy
11:55 PM 73.4 °F - 68.0 °F 83% 30.12 in 10.0 mi SSE 10.4 mph 16.1 mph N/A   Overcast